Orbital Elements at Epoch 2459000.5 (2020-May-31.0) TDB
Reference: JPL 14 (heliocentric ecliptic J2000)
Element | Value | Uncertainty (1-sigma) | Units |
e | .1509030694344313 | 6.8335e-08 | |
a | 2.670119821097475 | 2.6313e-08 | au |
q | 2.267190544336152 | 1.981e-07 | au |
i | 12.41193762155079 | 4.8741e-06 | deg |
node | 351.0774205632661 | 2.2815e-05 | deg |
peri | 91.83132291526005 | 4.0575e-05 | deg |
M | 294.5260602796355 | 2.4657e-05 | deg |
tp | 2459290.341471794245 (2021-Mar-16.84147179) | 0.00010676 | TDB |
period | 1593.655892582164 4.36 | 2.3557e-05 6.45e-08 | d yr |
n | .2258956915828926 | 3.3392e-09 | deg/d |
Q | 3.073049097858799 | 3.0284e-08 | au |
|
| | Orbit Determination Parameters
Additional Information
|